KPSK

Details ICAO KPSK
Name NEW RIVER VALLEY
Region United States
Timezone America/New_York (UTC-4.0)
Plans Departing 6
Arriving 11
Stats Elevation 2,105 ft / 642 m (AMSL)
Location 37.137346° -80.678483°
Runways 1
Magnetic Variation 8.217° W
Sunrise 2018-05-21 10:11:20 UTC / 2018-05-21 06:11:20 Local
Sunset 2018-05-22 00:30:10 UTC / 2018-05-21 20:30:10 Local
Advertisement - Login to hide

Runways

ID Width Length Bearing (true) Bearing (mag) Surface Threshold Offset Overrun Length
06 150 ft / 46 m 6,198 ft / 1,889 m 51.99° 60.21° Asphalt 0 ft / 0 m 800 ft / 244 m
24 150 ft / 46 m 6,198 ft / 1,889 m 232.00° 240.22° Asphalt 0 ft / 0 m 0 ft / 0 m

Approach Navaids

Runway Type Ident Frequency Range Bearing (true) Bearing (mag) Slope Elevation
06 Localiser IPSK 110.90 MHz 18 nm / 33 km 52.01° 60.22° - 2,105 ft / 642 m (AMSL)
06 Glidescope IPSK 110.90 MHz 10 nm / 19 km 52.00° 60.21° 3.00° 2,098 ft / 639 m (AMSL)

Map

Weather


0- 5 10 15 20 25 30 35+ Temperature / ° C

Clouds and Precipitation
Forecast for 2018-05-21 06:00 UTC. Updated 2 hours ago

Ground ~20,000 ft ~40,000 ft Winds

METAR

KPSK 210715Z AUTO 00000KT 7SM CLR 18/18 A3017 RMK AO2 T01780176

TAF

Not found

Frequencies

Recorded 127.37 MHz AWOS 3
Clearance 121.70 MHz CLNC DEL
Unicom 122.70 MHz CTAF/UNICOM
Approach 126.00 MHz ROANOKE APP/DEP
Warning: Do not use this data for real-world aviation or navigation. No guarantee of current accuracy is given.